Location: Newark
(35.5300°N, 14.3000°E)
Time: 19:08:35
(UTC+00:00)

Transit 4A - Pass Details

Date: 29 November 2019
Orbit: 872 x 973 km, 66.8° (Epoch: 28 January)

Event Time Altitude Azimuth Distance (km) Brightness Sun altitude
Exits shadow 03:27:30 35° 7° (N) 1,392 8.7 -28.8°
Maximum altitude 03:29:35 50° 59° (ENE) 1,105 8.5 -28.4°
Drops below altitude 10° 03:35:11 10° 134° (SE) 2,512 10.8 -27.3°
Sets 03:37:44 0° 140° (SE) 3,449 11.6 -26.7°
